Regional Weather Roundup
Issued by NWS Sterling, VA

Home | Current Version | Previous Version | Graphics & Text | Print | Product List | Glossary On
Versions: 1 2 3 4 5 6 7 8 9 10 11 12 13 14 15 16 17 18 19 20 21 22 23 24 25 26 27
000
ASUS41 KLWX 262311
RWRLWX

REGIONAL WEATHER ROUNDUP
NATIONAL WEATHER SERVICE BALTIMORE MD/WASHINGTON DC
700 PM EDT SAT MAY 26 2018

Note: "FAIR" indicates few or no clouds below 12,000 feet
with no significant weather and/or obstructions to visibility.
 TC=TEMPERATURE CELSIUS

 * =Non NWS site. Station does not report precipitation (e.g. rain,
    snow, etc.), thunder, or fog.

DCZ001-MDZ009-015-VAZ040>042-051-053>054-270000-
WASHINGTON METRO

CITY           SKY/WX    TMP DP  RH WIND       PRES   REMARKS
WASHINGTON NAT CLOUDY    84  70  62 SW8       29.84R
DULLES         CLOUDY    80  74  81 S7        29.84S
ANDREWS AFB    FAIR      82  70  65 SW7       29.84R
FT BELVOIR     TSTM      77  71  83 S8        29.86R
QUANTICO       TSTM      79  74  84 NW9       29.85R
COLLEGE PARK*  FAIR      76  74  95 CALM      29.83S
LEESBURG*      CLOUDY    79  73  83 SW3       29.85F
MANASSAS*      PTSUNNY   75  72  90 SW5       29.86R
GAITHERSBURG*  LGT RAIN  73  71  93 CALM      29.86R

$$

MDZ006>007-011-014-270000-
BALTIMORE METRO

CITY           SKY/WX    TMP DP  RH WIND       PRES   REMARKS
BWI AIRPORT    LGT RAIN  76  73  91 W3        29.83R
MD SCIENCE CTR   N/A     80  73  79 MISG      29.83R
MARTIN STATE   LGT RAIN  81  75  83 SW3       29.84R
ANNAPOLIS      LGT RAIN N/A N/A N/A CALM      29.83R
FORT MEADE*    FAIR      72  72 100 CALM      29.86S

$$

MDZ012-015-019>023-270000-
MARYLAND EASTERN SHORE

CITY           SKY/WX    TMP DP  RH WIND       PRES   REMARKS
OCEAN CITY     FAIR      77  72  84 SW12G18   29.86S
SALISBURY      FAIR      83  72  69 S7        29.85R
BAY BRIDGE AP* FAIR      82  72  69 S3        29.84R
CAMBRIDGE*     MOSUNNY   82  73  74 VRB5      29.85R
EASTON*        PTSUNNY   84  72  65 SW6       29.88R

$$

MDZ017>025-270000-
SOUTHERN MARYLAND

CITY           SKY/WX    TMP DP  RH WIND       PRES   REMARKS
PATUXENT RIVER FAIR      86  71  60 S6        29.85R THUNDER HX  91
ST INIGOES     FAIR      84  71  65 SW9       29.85R
LEONARDTOWN*   FAIR      81  68  65 SW6       29.87R

$$

MDZ003>005-270000-
NORTH CENTRAL MARYLAND

CITY           SKY/WX    TMP DP  RH WIND       PRES   REMARKS
FREDERICK*     SUNNY     82  70  65 SW9       29.87R
HAGERSTOWN APT LGT RAIN  74  70  87 S6        29.84R
WESTMINSTER*   FAIR      81  70  69 SW5       29.86R

$$

MDZ501>502-270000-
WESTERN MARYLAND

CITY           SKY/WX    TMP DP  RH WIND       PRES   REMARKS
OAKLAND*       FAIR      66  61  82 NW6       29.94S
CUMBERLAND*    PTSUNNY   79  70  73 NW3       29.88R

$$

VAZ025>031-270000-
SHENANDOAH VALLEY

CITY           SKY/WX    TMP DP  RH WIND       PRES   REMARKS
WINCHESTER*    FAIR      72  72 100 CALM      29.87R
FRONT ROYAL*   FAIR      77  72  83 CALM      29.85R
LURAY*         FAIR      73  70  88 CALM      29.86F
NEW MARKET*    FAIR      76  69  79 CALM      29.85S
STAUNTON*      LGT RAIN  73  71  93 E5        29.91R
WAYNESBORO*    CLOUDY    72  70  92 CALM      29.89S

$$

WVZ021-048>050-054>055-270000-
EASTERN WEST VIRGINIA PANHANDLE

CITY           SKY/WX    TMP DP  RH WIND       PRES   REMARKS
MARTINSBURG    FAIR      77  67  71 CALM      29.84F
PETERSBURG*    PTSUNNY   75  65  70 SW5       29.86S

$$

VAZ036>039-050-270000-
CENTRAL FOOTHILLS

CITY           SKY/WX    TMP DP  RH WIND       PRES   REMARKS
CHARLOTTESVILL PTSUNNY   77  72  84 S3        29.87R
CULPEPER*      RAIN      71  68  91 CALM      29.87S
ORANGE*        CLOUDY    72  70  94 CALM      29.88S
GORDONSVILLE*  FAIR      75  74  95 CALM      29.87R
WARRENTON*     LGT RAIN  73  68  85 CALM      29.86R

$$

VAZ055>057-270000-
NORTH AND CENTRAL PIEDMONT

CITY           SKY/WX    TMP DP  RH WIND       PRES   REMARKS
FREDERICKSBRG* LGT RAIN  76  68  76 SW14G26   29.86R
STAFFORD*      TSTM      75  73  96 W12       29.91R

$$

NCZ024-NYZ072-PAZ021-071-VAZ022-071-270000-
OTHER REGIONAL OBSERVATIONS

CITY           SKY/WX    TMP DP  RH WIND       PRES   REMARKS
NEW YORK CITY  FAIR      84  67  56 CALM      29.82R
PHILADELPHIA   CLOUDY    78  67  68 SE8       29.81S THUNDER
PITTSBURGH     PTSUNNY   77  64  64 S6        29.85R
ROANOKE        PTSUNNY   74  68  81 S5        29.92R
RICHMOND       CLOUDY    81  69  67 SW7       29.89R
RALEIGH        PTSUNNY   78  75  90 W6        29.90F

$$

ANZ530>537-270000-
MARINE OBSERVATIONS

STATION/POSITION TIME  TEMP    WIND        PRES
                       AIR SEA DIR/SP/G
                 (UTC) (F)     (DEG/KT/KT) (MB)
THOMAS PT LIGHT  2300   82 72  210/  9/  9 1011.2R
BALT KEY BRIDGE  2236   78     240/  2/  3 1009.9R
COVE POINT       2236   83     210/  9/ 11 1011.0R
LEWISETTA        2236   85 77  240/ 11/ 14 1010.8R
SOLOMONS ISLAND  2236   82 70  210/  8/ 12 1010.3R
PINEY POINT      2248          250/  7/ 12   N/A

$$





USA.gov is the U.S. government's official web portal to all federal, state and local government web resources and services.